#timestamp,LO_Frequency,Hit,StdDev 
1583236815.8,286047001.2,N
1583236835.7,286046998.6,N
1583236855.5,286047000.6,N
1583236875.3,286047000.5,N
1583236895.2,286047001.3,N
1583236915.0,286047002.4,N
1583236915.9,286047002.4,N
1583236935.8,286047002.1,N
1583236955.6,286047001.5,N
1583236975.4,286047002.3,N
1583236995.3,286046998.1,N
1583237015.1,286046997.0,N
1583237035.8,286047002.2,N
1583237055.7,286046996.8,N
1583237075.5,286047000.8,N
1583237095.4,286047002.7,N
1583237115.2,286047002.6,N
1583237135.0,286046998.3,N
1583237135.9,286046998.3,N
1583237155.8,286047000.9,N
1583237175.6,286047002.5,N
1583237195.5,286047001.3,N
1583237215.3,286046999.7,N
1583237235.1,286047000.4,N
1583237255.9,286046998.5,N
1583237275.7,286046997.1,N
1583237295.6,286046996.5,N
1583237315.4,286046997.2,N
1583237335.2,286046996.8,N
1583237355.1,286046997.2,N
1583237356.0,286046997.2,N
1583237375.8,286046999.4,N
1583237395.6,286047000.5,N
1583237415.5,286047002.7,N
1583237435.3,286047002.4,N
1583237455.2,286046998.3,N
1583237475.0,286046998.5,N
1583237475.9,286046998.5,N
1583237495.7,286047002.2,N
1583237515.6,286047004.3,N
1583237535.4,286047002.4,N
1583237555.3,286047000.1,N
1583237575.1,286047000.4,N
1583237576.0,286047000.4,N
1583237595.8,286047001.0,N
1583237645.7,286047000.3,E
1583237655.6,286046998.6,N
1583237675.5,286047000.9,P
1583237695.3,286047002.6,N
1583237715.1,286047002.8,N
1583237735.9,286047002.7,N
1583237755.7,286047002.2,N
1583237775.6,286047002.0,N
1583237795.4,286046998.6,N
1583237815.2,286046998.4,N
1583237835.1,286046998.9,N
1583237836.0,286046998.9,N
1583237855.8,286047002.6,N
1583237875.7,286047003.7,N
1583237895.5,286047003.5,N
1583237915.3,286047002.3,N
1583237935.2,286047000.3,N
1583237955.9,286047000.1,N
1583237975.7,286047000.6,N
1583237995.6,286047001.2,N
1583238015.4,286047001.2,N
1583238035.3,286046999.8,N
1583238055.1,286047002.3,N
1583238075.8,286047001.7,N
1583238095.7,286047001.3,N
1583238115.5,286047004.4,N
1583238135.4,286047001.8,N
1583238155.2,286047002.7,N
1583238175.0,286047002.2,N
1583238175.9,286047002.2,N
1583238195.8,286047000.1,N
1583238215.6,286047000.5,N
1583238235.4,286047000.9,N
1583238255.3,286047000.5,N
1583238275.1,286047001.1,N
1583238295.9,286046998.6,N
1583238315.7,286046999.0,N
1583238365.6,286046998.7,E
1583238375.5,286047001.0,N
1583238395.3,286047004.4,P
1583238415.2,286047004.4,N
1583238435.0,286047002.5,N
1583238435.9,286047002.5,N
1583238455.8,286047000.2,N
1583238475.6,286047000.2,N
1583238495.4,286046998.6,N
1583238515.3,286046998.5,N
1583238535.1,286047001.1,N
1583238555.8,286046998.8,N
1583238575.7,286046998.7,N
1583238595.5,286046998.5,N
1583238615.4,286046999.5,N
1583238635.2,286046998.4,N
1583238655.0,286046997.2,N
1583238655.9,286046997.2,N
1583238675.8,286046996.2,N
1583238695.6,286046993.6,N
1583238715.4,286046995.6,N
1583238735.3,286046996.3,N
1583238755.1,286046993.7,N
1583238775.9,286046994.5,N
1583238795.7,286046994.5,N
1583238815.5,286046994.0,N
1583238835.4,286046993.6,N
1583238855.2,286046995.9,N
1583238875.1,286046993.4,N
1583238876.0,286046993.4,N
1583238895.8,286046995.9,N
1583238915.6,286046996.2,N
1583238935.5,286046997.5,N
1583238955.3,286046996.2,N
1583238975.1,286046994.4,N
1583238995.9,286046992.2,Y
1583239015.7,286046995.3,P
1583239035.6,286046995.7,P
1583239055.4,286046995.6,P
1583239075.2,286046996.7,Y
1583239095.1,286047002.5,P
1583239096.0,286047002.5,N
1583239115.8,286047001.5,N
1583239135.7,286047002.5,N
1583239155.5,286047002.6,N
1583239175.3,286047002.3,N
1583239195.2,286047002.7,N
1583239215.0,286047001.9,N
1583239215.9,286047001.9,N
1583239235.8,286047000.0,N
1583239255.6,286047002.0,N
1583239275.4,286047000.0,N
1583239295.3,286047000.3,N
1583239315.1,286047001.1,N
1583239335.9,286047000.2,N
1583239355.7,286047000.6,N
1583239375.5,286047000.4,N
1583239395.4,286046998.6,N
1583239415.2,286047001.2,N
1583239435.0,286047000.1,N
1583239435.9,286047000.1,N
1583239455.8,286047000.7,N
1583239475.6,286047001.1,N
1583239495.5,286047001.9,N
1583239515.3,286047004.1,N
1583239535.1,286047011.9,Y
1583239555.9,286047005.4,P
1583239575.7,286047003.4,N
1583239595.6,286047001.8,N
1583239615.4,286047002.4,N
1583239635.2,286046999.8,N
1583239655.1,286047004.3,N
1583239656.0,286047004.3,N
1583239675.8,286047002.2,N
1583239695.6,286047003.5,N
1583239715.5,286047003.0,N
1583239735.3,286047005.3,Y
1583239755.2,286047002.8,P
1583239775.0,286046998.2,P
1583239775.9,286046998.2,N
1583239795.8,286047002.8,N
1583239815.6,286047000.1,N
1583239835.4,286047002.1,N
1583239855.3,286047000.0,N
1583239875.1,286046998.5,N
1583239895.8,286047002.4,N
1583239915.7,286047000.7,N
1583239935.5,286047000.8,N
1583239955.4,286046999.8,N
1583239975.2,286047000.5,N
1583239995.0,286046998.5,N
1583239995.9,286046998.5,N
1583240015.8,286047000.7,N
1583240035.6,286046998.2,N
1583240055.5,286047000.4,N
1583240075.3,286047002.0,N
1583240095.1,286047001.6,N
1583240115.9,286047002.1,N
1583240135.7,286047003.1,N
1583240155.5,286047003.2,N
1583240175.4,286047002.0,N
1583240195.2,286047002.5,N
1583240215.1,286047001.5,N
1583240216.0,286047001.5,N
1583240235.8,286047004.2,N
1583240255.6,286047001.6,N
1583240275.5,286047005.3,Y
1583240295.3,286047003.6,P
1583240315.1,286047001.8,N
1583240335.9,286047002.6,N
1583240355.7,286047004.4,Y
1583240375.6,286047001.6,P
1583240395.4,286047001.9,P
